Weather History for Menominee, MI

Change the Weather History Date:

Wednesday, October 19, 2011

  Actual Average Record
Temperature  
Mean Temperature 43 °F -  
Max Temperature 51 °F 53 °F 79 °F (1950)
Min Temperature 35 °F 35 °F 19 °F (1972)
Degree Days  
Heating Degree Days 22    
Moisture  
Dew Point 34 °F    
Average Humidity 74    
Maximum Humidity 93    
Minimum Humidity 47    
Precipitation  
Precipitation 0.00 in - - ()
Sea Level Pressure  
Sea Level Pressure 29.91 in    
Wind  
Wind Speed 11 mph (NNE)    
Max Wind Speed 25 mph    
Max Gust Speed 32 mph    
Visibility 10 miles    
Events      
Averages and records for this station are not official NWS values.
T = Trace of Precipitation, MM = Missing Value Source: NWS Daily Summary

Daily Weather History Graph

Daily Weather History Graph

Search for Another Location

Airport:

Trip Planner

Search our weather history database for the weather conditions in past years. The results will help you decide how hot, cold, wet, or windy it might be!

Date:

Astronomy

Oct. 19, 2011 Rise Set
Actual Time 7:11 AM CDT 5:59 PM CDT
Civil Twilight 6:41 AM CDT 6:28 PM CDT
Nautical Twilight 6:07 AM CDT 7:02 PM CDT
Astronomical Twilight 5:33 AM CDT 7:36 PM CDT
Moon 11:37 PM CDT (10/19) 1:49 PM CDT (10/19)
Length of Visible Light 11h 47m
Length of Day
10h 47m
Waning Gibbous, 54% of the Moon is Illuminated
Oct 19
Waning Gibbous
Oct 19
Last Quarter
Oct 26
New
Nov 2
First Quarter
Nov 10
Full

Hourly Weather History & Observations

Time (CDT) Temp. Windchill Dew Point Humidity Pressure Visibility Wind Dir Wind Speed Gust Speed Precip Events Conditions
12:15 AM 37.4 °F 32.1 °F 33.8 °F 87% 29.95 in 10.0 mi North 6.9 mph - N/A   Clear
12:35 AM 37.4 °F 32.8 °F 33.8 °F 87% 29.95 in 10.0 mi North 5.8 mph - N/A   Clear
12:55 AM 37.4 °F 32.8 °F 33.8 °F 87% 29.96 in 10.0 mi North 5.8 mph - N/A   Clear
1:15 AM 35.6 °F 30.7 °F 33.8 °F 93% 29.95 in 10.0 mi North 5.8 mph - N/A   Clear
1:35 AM 35.6 °F 29.9 °F 32.0 °F 87% 29.95 in 10.0 mi North 6.9 mph - N/A   Clear
2:15 AM 35.6 °F 29.2 °F 32.0 °F 87% 29.95 in 10.0 mi NNW 8.1 mph - N/A   Clear
2:35 AM 35.6 °F 28.6 °F 30.2 °F 81% 29.94 in 10.0 mi NNW 9.2 mph - N/A   Clear
2:55 AM 35.6 °F 28.6 °F 32.0 °F 87% 29.94 in 10.0 mi NNW 9.2 mph - N/A   Clear
3:15 AM 35.6 °F 28.6 °F 32.0 °F 87% 29.93 in 10.0 mi North 9.2 mph - N/A   Partly Cloudy
3:35 AM 35.6 °F 28.6 °F 32.0 °F 87% 29.93 in 10.0 mi NNW 9.2 mph - N/A   Mostly Cloudy
3:55 AM 35.6 °F 27.5 °F 33.8 °F 93% 29.93 in 10.0 mi North 11.5 mph - N/A   Overcast
4:35 AM 35.6 °F 28.6 °F 33.8 °F 93% 29.93 in 10.0 mi North 9.2 mph - N/A   Mostly Cloudy
4:55 AM 37.4 °F 30.8 °F 33.8 °F 87% 29.93 in 10.0 mi North 9.2 mph - N/A   Mostly Cloudy
5:15 AM 37.4 °F 30.3 °F 33.8 °F 87% 29.93 in 10.0 mi North 10.4 mph - N/A   Partly Cloudy
5:35 AM 37.4 °F 30.3 °F 33.8 °F 87% 29.93 in 10.0 mi North 10.4 mph - N/A   Mostly Cloudy
5:55 AM 37.4 °F 31.4 °F 35.6 °F 93% 29.94 in 10.0 mi North 8.1 mph - N/A   Overcast
6:15 AM 37.4 °F 30.3 °F 35.6 °F 93% 29.93 in 10.0 mi North 10.4 mph 16.1 mph N/A   Overcast
6:35 AM 39.2 °F 32.5 °F 35.6 °F 87% 29.93 in 10.0 mi North 10.4 mph - N/A   Overcast
6:55 AM 39.2 °F 32.5 °F 35.6 °F 87% 29.93 in 10.0 mi North 10.4 mph - N/A   Overcast
7:15 AM 39.2 °F 32.5 °F 35.6 °F 87% 29.93 in 10.0 mi North 10.4 mph - N/A   Overcast
7:35 AM 39.2 °F 33.0 °F 35.6 °F 87% 29.93 in 10.0 mi North 9.2 mph - N/A   Overcast
7:55 AM 39.2 °F 31.6 °F 35.6 °F 87% 29.93 in 10.0 mi North 12.7 mph - N/A   Overcast
8:15 AM 41.0 °F 33.9 °F 37.4 °F 87% 29.93 in 10.0 mi North 12.7 mph 16.1 mph N/A   Overcast
8:35 AM 41.0 °F 33.1 °F 35.6 °F 81% 29.94 in 10.0 mi NNE 15.0 mph 20.7 mph N/A   Overcast
8:55 AM 42.8 °F 36.2 °F 37.4 °F 81% 29.95 in 10.0 mi NNE 12.7 mph 19.6 mph N/A   Overcast
9:15 AM 42.8 °F 36.2 °F 37.4 °F 81% 29.95 in 10.0 mi North 12.7 mph - N/A   Overcast
9:35 AM 42.8 °F 36.6 °F 37.4 °F 81% 29.95 in 10.0 mi NNE 11.5 mph 17.3 mph N/A   Overcast
9:55 AM 44.6 °F 39.2 °F 37.4 °F 76% 29.95 in 10.0 mi North 10.4 mph 18.4 mph N/A   Overcast
10:15 AM 44.6 °F 38.1 °F 37.4 °F 76% 29.95 in 10.0 mi NNE 13.8 mph 19.6 mph N/A   Overcast
10:35 AM 44.6 °F 38.4 °F 37.4 °F 76% 29.95 in 10.0 mi NNE 12.7 mph - N/A   Overcast
10:55 AM 46.4 °F 40.7 °F 37.4 °F 71% 29.95 in 10.0 mi NE 12.7 mph 20.7 mph N/A   Overcast
11:15 AM 46.4 °F 39.8 °F 35.6 °F 66% 29.95 in 10.0 mi NE 16.1 mph 20.7 mph N/A   Overcast
11:55 AM 46.4 °F 39.5 °F 35.6 °F 66% 29.95 in 10.0 mi NE 17.3 mph - N/A   Overcast
12:15 PM 48.2 °F - 35.6 °F 62% 29.94 in 10.0 mi NE 17.3 mph 24.2 mph N/A   Overcast
12:35 PM 48.2 °F - 35.6 °F 62% 29.93 in 10.0 mi NE 18.4 mph 23.0 mph N/A   Overcast
12:55 PM 48.2 °F - 33.8 °F 58% 29.92 in 10.0 mi NE 17.3 mph - N/A   Mostly Cloudy
1:15 PM 48.2 °F - 33.8 °F 58% 29.91 in 10.0 mi NE 15.0 mph 23.0 mph N/A   Overcast
1:35 PM 48.2 °F - 33.8 °F 58% 29.91 in 10.0 mi NE 19.6 mph 25.3 mph N/A   Overcast
1:55 PM 51.8 °F - 32.0 °F 47% 29.90 in 10.0 mi NE 21.9 mph 31.1 mph N/A   Mostly Cloudy
2:15 PM 51.8 °F - 32.0 °F 47% 29.89 in 10.0 mi ENE 25.3 mph 32.2 mph N/A   Mostly Cloudy
2:55 PM 51.8 °F - 32.0 °F 47% 29.89 in 10.0 mi ENE 15.0 mph 26.5 mph N/A   Mostly Cloudy
3:15 PM 51.8 °F - 35.6 °F 54% 29.88 in 10.0 mi ENE 23.0 mph 29.9 mph N/A   Scattered Clouds
3:35 PM 51.8 °F - 32.0 °F 47% 29.88 in 10.0 mi NE 23.0 mph 31.1 mph N/A   Scattered Clouds
3:55 PM 48.2 °F - 33.8 °F 58% 29.88 in 10.0 mi NNE 15.0 mph 23.0 mph N/A   Mostly Cloudy
4:15 PM 48.2 °F - 35.6 °F 62% 29.88 in 10.0 mi NNE 10.4 mph 19.6 mph N/A   Mostly Cloudy
4:35 PM 50.0 °F - 35.6 °F 58% 29.88 in 10.0 mi NNE 11.5 mph 21.9 mph N/A   Mostly Cloudy
4:55 PM 48.2 °F - 35.6 °F 62% 29.87 in 10.0 mi NNE 13.8 mph 27.6 mph N/A   Overcast
5:15 PM 48.2 °F - 35.6 °F 62% 29.86 in 10.0 mi NNE 16.1 mph 29.9 mph N/A   Partly Cloudy
5:35 PM 46.4 °F 40.1 °F 35.6 °F 66% 29.87 in 10.0 mi North 15.0 mph 23.0 mph N/A   Clear
5:55 PM 46.4 °F 39.8 °F 33.8 °F 62% 29.88 in 10.0 mi NNE 16.1 mph 31.1 mph N/A   Clear
6:15 PM 46.4 °F 39.8 °F 33.8 °F 62% 29.88 in 10.0 mi NNE 16.1 mph 24.2 mph N/A   Clear
6:35 PM 44.6 °F 36.9 °F 35.6 °F 71% 29.87 in 10.0 mi NNE 18.4 mph 27.6 mph N/A   Clear
6:55 PM 44.6 °F 38.1 °F 33.8 °F 66% 29.88 in 10.0 mi NNE 13.8 mph 28.8 mph N/A   Clear
7:15 PM 44.6 °F 35.9 °F 33.8 °F 66% 29.88 in 10.0 mi NNE 23.0 mph 32.2 mph N/A   Scattered Clouds
7:35 PM 44.6 °F 36.1 °F 33.8 °F 66% 29.87 in 10.0 mi NNE 21.9 mph 31.1 mph N/A   Overcast
7:55 PM 44.6 °F 37.4 °F 33.8 °F 66% 29.87 in 10.0 mi NNE 16.1 mph 27.6 mph N/A   Overcast
8:15 PM 44.6 °F 38.4 °F 33.8 °F 66% 29.87 in 10.0 mi NNE 12.7 mph 20.7 mph N/A   Overcast
8:35 PM 44.6 °F 37.8 °F 33.8 °F 66% 29.86 in 10.0 mi NNE 15.0 mph 23.0 mph N/A   Overcast
8:55 PM 42.8 °F 34.3 °F 33.8 °F 70% 29.85 in 10.0 mi NNE 19.6 mph 29.9 mph N/A   Mostly Cloudy
9:15 PM 42.8 °F 33.8 °F 33.8 °F 70% 29.84 in 10.0 mi NNE 21.9 mph 32.2 mph N/A   Clear
9:35 PM 42.8 °F 34.0 °F 32.0 °F 66% 29.83 in 10.0 mi NNE 20.7 mph 32.2 mph N/A   Clear
9:55 PM 42.8 °F 34.3 °F 32.0 °F 66% 29.82 in 10.0 mi NNE 19.6 mph 29.9 mph N/A   Clear
10:15 PM 42.8 °F 36.2 °F 32.0 °F 66% 29.82 in 10.0 mi NNE 12.7 mph 27.6 mph N/A   Scattered Clouds
10:35 PM 42.8 °F 35.4 °F 33.8 °F 70% 29.81 in 10.0 mi NNE 15.0 mph 20.7 mph N/A   Mostly Cloudy
10:55 PM 42.8 °F 34.8 °F 33.8 °F 70% 29.79 in 10.0 mi NNE 17.3 mph 26.5 mph N/A   Mostly Cloudy
11:15 PM 42.8 °F 34.8 °F 33.8 °F 70% 29.78 in 10.0 mi NNE 17.3 mph 24.2 mph N/A   Overcast
11:35 PM 44.6 °F 36.4 °F 33.8 °F 66% 29.77 in 10.0 mi NNE 20.7 mph 26.5 mph N/A   Overcast
11:55 PM 44.6 °F 36.6 °F 33.8 °F 66% 29.77 in 10.0 mi NNE 19.6 mph 29.9 mph N/A   Overcast